Regional Weather Roundup
Issued by NWS

Home | Current Version | Previous Version | Text Only | Print | Product List | Glossary Off
Versions: 1 2 3 4 5 6 7 8 9 10 11 12 13 14 15 16 17 18 19 20 21 22 23 24 25 26 27

000
ASUS45 KBOU 182307
RWRCO

WEATHER ROUNDUP FOR COLORADO
NATIONAL WEATHER SERVICE DENVER/BOULDER CO
500 PM MDT MON SEP 18 2017

NOTE: "FAIR" INDICATES FEW OR NO CLOUDS BELOW 12000 FEET WITH NO
SIGNIFICANT WEATHER AND/OR OBSTRUCTIONS TO VISIBILITY.

COZ001>005-013-030-031-190000-
...NORTHWEST COLORADO...

CITY           SKY/WX    TMP DP  RH WIND       PRES   REMARKS
CRAIG          PTSUNNY   77  24  14 SW20G25   29.96F
HAYDEN         FAIR      74  28  18 SW14G23   29.99F
MEEKER         FAIR      74  32  21 S14G23    29.98F
RABBIT EARS PA FAIR      55  28  35 SW8       30.25F
STEAMBOAT SPGS FAIR      71  29  21 S10G17    30.00F
WALDEN         FAIR      66  25  20 SW12G18   30.10F
$$

COZ006>008-011-190000-
...WEST CENTRAL VALLEYS...

CITY           SKY/WX    TMP DP  RH WIND       PRES   REMARKS
GRAND JUNCTION FAIR      80  38  22 NW9G17    29.90F
MONTROSE       FAIR      80  28  15 W16G22    29.99F
EAGLE          FAIR      75  31  19 W15       30.03F
RIFLE          FAIR      80  30  16 VRB3      29.93F
DELTA          FAIR      85  24  11 MISG      29.95F
NUCLA          FAIR      79  21  11 S21       30.07S
$$

COZ017>023-064>068-190000-
...SOUTHWEST COLORADO...

CITY           SKY/WX    TMP DP  RH WIND       PRES   REMARKS
DURANGO        FAIR      74  19  12 SW8       30.13F
CORTEZ         FAIR      78  23  13 S14       30.06F
PAGOSA SPRINGS FAIR      70  16  12 W15       30.20F
TELLURIDE      FAIR      66  18  16 SE14G22   30.24F
WOLF CREEK PAS FAIR      46  23  39 S16G32    30.47S
$$

COZ009-010-012-014-032>034-037-058>063-190000-
...CENTRAL COLORADO...

CITY           SKY/WX    TMP DP  RH WIND       PRES   REMARKS
ASPEN          FAIR      72  25  17 W7G18     30.09F
BUENA VISTA    FAIR      70  25  18 S17       30.11F
COPPER MTN     FAIR      55  23  28 W3        30.38F
BERTHOUD PASS  FAIR      43  36  75 W9        30.41S
COTTONWOOD PAS FAIR      64  23  20 SW9G16    30.25F
GUNNISON       FAIR      70  35  27 W10       30.11F
KREMMLING      FAIR      79  25  13 W13G23    30.07F
LEADVILLE      FAIR      59  24  26 SW9       30.23F
MONARCH PASS   FAIR      52  32  46 SW24G30   30.49F
SALIDA         FAIR      73  36  26 S14G22    30.16F
SUNLIGHT       FAIR      54  30  40 SW10G21   30.32F
WILKERSON PASS FAIR      55  23  28 S9G18     30.36F
$$

COZ069>075-190000-
...SAN LUIS VALLEY/SANGRE DE CRISTO MOUNTAINS...

CITY           SKY/WX    TMP DP  RH WIND       PRES   REMARKS
ALAMOSA        FAIR      73  26  17 SW21G26   30.12F
DEL NORTE      FAIR      71  27  19 SW15G24   30.16F
LA VETA PASS   FAIR      61  25  25 S21G46    30.40F
SAGUACHE       FAIR      70  37  30 SE10      30.14F
$$

COZ035-036-038>040-190000-
...NORTHERN COLORADO FRONT RANGE...

CITY           SKY/WX    TMP DP  RH WIND       PRES   REMARKS
DENVER INTL AP FAIR      81  28  14 SE8       29.92F
DMNS CITY PARK   N/A     80  30  16 E10G20    29.90S
AURORA         MOSUNNY   81  30  15 SE9       29.93F
FRONT RANGE AP MOSUNNY   82  27  13 E7        29.93F
ERIE MUNI ARPT FAIR      83  24  11 SE14      29.94F
BOULDER MUN AP FAIR      82  32  16 E6        29.89F
CENTENNIAL     FAIR      80  27  14 S12       29.93F
BROOMFIELD     NOT AVBL
FORT COLLINS   FAIR      82  32  16 S12       29.90F
LONGMONT       FAIR      84  30  14 SE6       29.90F
$$

COZ041-046-047-076>085-087-088-190000-
...PIKES PEAK/PALMER DIVIDE AND SOUTHERN FOOTHILLS...

CITY           SKY/WX    TMP DP  RH WIND       PRES   REMARKS
COLO. SPRINGS  FAIR      80  33  18 S20G28    30.00F
A. F. ACADEMY  FAIR      76  30  18 SE8       30.00F
SCHRIEVER AFB  FAIR      77  26  15 S18G28    30.01F
CHEYENNE MTN   NOT AVBL
ELLICOTT       NOT AVBL
FALCON         FAIR      76  28  17 S13G20    30.06S
FORT CARSON    FAIR      80  30  16 S17       29.96F
LIMON            N/A    N/A N/A N/A MISG      29.96F
MONUMENT HILL  FAIR      72  32  23 S9        30.06F
CANON CITY     SUNNY     84  36  17 W8        29.94F
WALSENBURG     FAIR      82  25  12 SW12G21   30.00F
TRINIDAD       FAIR      81  40  23 S3        29.99F
$$

COZ042>045-048>051-090-091-190000-
...NORTHEAST COLORADO...

CITY           SKY/WX    TMP DP  RH WIND       PRES   REMARKS
GREELEY ARPT   FAIR      82  32  16 SE9       29.89F
AKRON          FAIR      81  30  15 S9        29.92F
BURLINGTON     FAIR      82  39  21 SE7       29.93F
WRAY           FAIR      86  28  12 SE3       29.89S
YUMA           FAIR      81  36  19 SW6       29.90S
STERLING       FAIR      82  34  17 S9        29.87F
HOLYOKE        FAIR      86  30  13 SW8       29.88S
FORT MORGAN    FAIR      83  28  13 E9        29.91S
$$

COZ086-089-092>099-190000-
...SOUTHEAST COLORADO...

CITY           SKY/WX    TMP DP  RH WIND       PRES   REMARKS
PUEBLO         FAIR      86  33  15 CALM      29.90F
LA JUNTA       FAIR      86  38  18 SE8       29.90F
LAMAR          FAIR      87  34  15 CALM      29.88F
SPRINGFIELD      N/A     83  48  29 S10       29.94F
$$




USA.gov is the U.S. government's official web portal to all federal, state and local government web resources and services.